Location: Newark
(58.8333°N, 23.5833°E)
Time: 05:40:05
(UTC+00:00)

Explorer 7 - Pass Details

Date: 22 November 2019
Orbit: 485 x 680 km, 50.3° (Epoch: 13 December)

Event Time Altitude Azimuth Distance (km) Brightness Sun altitude
Rises 01:02:08 0° 258° (WSW) 2,882 - -40.6°
Reaches altitude 10° 01:04:47 10° 245° (WSW) 1,939 - -40.3°
Maximum altitude 01:08:24 25° 191° (S) 1,183 - -39.9°
Drops below altitude 10° 01:11:50 10° 135° (SE) 1,834 - -39.5°
Sets 01:14:17 0° 122° (ESE) 2,690 - -39.3°
